Location: Melara
(45.0500°N, 11.1833°E)
Time: 23:56:22
(UTC+00:00)

Cosmos 1703 - Pass Details

Date: 26 May 2022
Orbit: 518 x 535 km, 82.5° (Epoch: 02 July)

Event Time Altitude Azimuth Distance (km) Brightness Sun altitude
Exits shadow 01:36:48 22° 169° (S) 1,215 4.7 -16.1°
Maximum altitude 01:39:12 59° 95° (E) 621 3.7 -15.9°
Drops below altitude 10° 01:43:06 10° 16° (NNE) 1,796 7.1 -15.5°
Sets 01:45:16 0° 13° (NNE) 2,689 8.1 -15.2°
